• In Hungary
  • List of Countries
  • For 7 days
  • Water Temperature
  • Satellite Maps
  • Weather Map
  • News
  • Weather Widgets
  • user-avatar
    Login

    Hourly Weather Shemelinka

    Today, 20 September, Thursday

    Time Temperature Precipitation Wind Pressure Humidity
    00:00 +16°C° 0 mm 3 mps 739 mmHg 92%
    01:00 +16°C° 0 mm 3 mps 739 mmHg 94%
    02:00 +14°C° 0 mm 3 mps 739 mmHg 96%
    03:00 +14°C° 0 mm 3 mps 739 mmHg 96%
    04:00 +13°C° 0 mm 3 mps 739 mmHg 97%
    05:00 +13°C° 0 mm 3 mps 740 mmHg 97%
    06:00 +13°C° 0 mm 3 mps 740 mmHg 93%
    07:00 +14°C° 0 mm 3 mps 740 mmHg 90%
    08:00 +14°C° 0 mm 3 mps 740 mmHg 86%
    09:00 +17°C° 0 mm 3 mps 741 mmHg 79%
    10:00 +18°C° 0 mm 4 mps 741 mmHg 72%
    11:00 +20°C° 0 mm 4 mps 741 mmHg 64%
    12:00 +21°C° 0 mm 4 mps 741 mmHg 62%
    13:00 +21°C° 0 mm 3 mps 741 mmHg 59%
    14:00 +22°C° 0 mm 3 mps 741 mmHg 57%
    15:00 +21°C° 0 mm 3 mps 741 mmHg 63%
    16:00 +20°C° 0 mm 2 mps 741 mmHg 68%
    17:00 +19°C° 0 mm 2 mps 741 mmHg 74%
    18:00 +18°C° 0 mm 2 mps 741 mmHg 79%
    19:00 +16°C° 0 mm 2 mps 742 mmHg 84%
    20:00 +15°C° 0 mm 2 mps 742 mmHg 89%
    21:00 +15°C° 0 mm 2 mps 742 mmHg 91%
    22:00 +15°C° 0 mm 2 mps 742 mmHg 93%
    23:00 +14°C° 0 mm 2 mps 742 mmHg 94%

    Tomorrow, 21 September, Friday

    Time Temperature Precipitation Wind Pressure Humidity
    00:00 +14°C° 0 mm 2 mps 742 mmHg 94%
    01:00 +14°C° 0 mm 2 mps 742 mmHg 94%
    02:00 +14°C° 0 mm 2 mps 743 mmHg 94%
    03:00 +14°C° 0 mm 2 mps 743 mmHg 95%
    04:00 +14°C° 0 mm 2 mps 743 mmHg 96%
    05:00 +14°C° 0 mm 2 mps 743 mmHg 96%
    06:00 +15°C° 0 mm 2 mps 743 mmHg 92%
    07:00 +16°C° 0 mm 2 mps 743 mmHg 88%
    08:00 +17°C° 0 mm 3 mps 743 mmHg 84%
    09:00 +19°C° 0 mm 3 mps 743 mmHg 78%
    10:00 +21°C° 0 mm 3 mps 743 mmHg 71%
    11:00 +24°C° 0 mm 3 mps 744 mmHg 65%
    12:00 +24°C° 0.1 mm 3 mps 743 mmHg 64%
    13:00 +24°C° 0.1 mm 3 mps 743 mmHg 63%
    14:00 +25°C° 0.1 mm 3 mps 743 mmHg 62%
    15:00 +24°C° 0.3 mm 3 mps 743 mmHg 69%
    16:00 +23°C° 0.3 mm 2 mps 742 mmHg 75%
    17:00 +20°C° 0.3 mm 2 mps 742 mmHg 82%
    18:00 +20°C° 0 mm 2 mps 742 mmHg 85%
    19:00 +19°C° 0 mm 2 mps 742 mmHg 88%
    20:00 +18°C° 0 mm 3 mps 742 mmHg 91%
    21:00 +18°C° 0 mm 3 mps 742 mmHg 92%
    22:00 +17°C° 0 mm 3 mps 741 mmHg 92%
    23:00 +17°C° 0 mm 3 mps 741 mmHg 93%

    Day after tomorrow, 22 September, Saturday

    Time Temperature Precipitation Wind Pressure Humidity
    00:00 +17°C° 0 mm 3 mps 741 mmHg 93%
    01:00 +17°C° 0 mm 3 mps 740 mmHg 93%
    02:00 +17°C° 0 mm 4 mps 740 mmHg 93%
    03:00 +17°C° 0 mm 4 mps 740 mmHg 92%
    04:00 +17°C° 0 mm 4 mps 739 mmHg 92%
    05:00 +15°C° 0 mm 4 mps 739 mmHg 91%
    06:00 +17°C° 0 mm 4 mps 738 mmHg 86%
    07:00 +17°C° 0 mm 5 mps 738 mmHg 80%
    08:00 +19°C° 0 mm 5 mps 737 mmHg 75%
    09:00 +20°C° 0 mm 6 mps 737 mmHg 69%
    10:00 +21°C° 0 mm 6 mps 737 mmHg 62%
    11:00 +22°C° 0 mm 6 mps 736 mmHg 56%
    12:00 +21°C° 0.7 mm 6 mps 736 mmHg 64%
    13:00 +19°C° 0.7 mm 5 mps 736 mmHg 72%
    14:00 +17°C° 0.7 mm 5 mps 736 mmHg 80%
    15:00 +15°C° 1 mm 4 mps 736 mmHg 84%
    16:00 +13°C° 1 mm 3 mps 736 mmHg 87%
    17:00 +11°C° 1 mm 3 mps 737 mmHg 91%
    18:00 +11°C° 0.4 mm 3 mps 737 mmHg 91%
    19:00 +11°C° 0.4 mm 3 mps 737 mmHg 92%
    20:00 +10°C° 0.4 mm 3 mps 737 mmHg 92%
    21:00 +10°C° 0.8 mm 3 mps 737 mmHg 92%
    22:00 +10°C° 0.8 mm 3 mps 737 mmHg 91%
    23:00 +10°C° 0.8 mm 3 mps 737 mmHg 91%

    23 September, Sunday

    Time Temperature Precipitation Wind Pressure Humidity
    00:00 +10°C° 0.3 mm 3 mps 737 mmHg 91%
    01:00 +10°C° 0.3 mm 3 mps 737 mmHg 92%
    02:00 +9°C° 0.3 mm 2 mps 737 mmHg 92%
    03:00 +9°C° 0 mm 2 mps 737 mmHg 93%
    04:00 +9°C° 0 mm 2 mps 737 mmHg 94%
    05:00 +8°C° 0 mm 2 mps 736 mmHg 95%
    06:00 +9°C° 0 mm 2 mps 736 mmHg 93%
    07:00 +9°C° 0 mm 2 mps 736 mmHg 91%
    08:00 +9°C° 0 mm 2 mps 736 mmHg 89%
    09:00 +10°C° 0 mm 2 mps 735 mmHg 82%
    10:00 +11°C° 0 mm 3 mps 735 mmHg 75%
    11:00 +12°C° 0 mm 3 mps 735 mmHg 68%
    12:00 +13°C° 0.2 mm 3 mps 735 mmHg 66%
    13:00 +13°C° 0.2 mm 3 mps 734 mmHg 65%
    14:00 +13°C° 0.2 mm 3 mps 734 mmHg 64%
    15:00 +12°C° 0.3 mm 3 mps 734 mmHg 70%
    16:00 +11°C° 0.3 mm 3 mps 734 mmHg 76%
    17:00 +10°C° 0.3 mm 2 mps 734 mmHg 83%
    18:00 +9°C° 0 mm 2 mps 734 mmHg 86%
    19:00 +9°C° 0 mm 2 mps 734 mmHg 89%
    20:00 +8°C° 0 mm 2 mps 734 mmHg 92%
    21:00 +7°C° 0 mm 3 mps 734 mmHg 93%
    22:00 +7°C° 0 mm 3 mps 734 mmHg 93%
    23:00 +7°C° 0 mm 3 mps 734 mmHg 94%

    24 September, Monday

    Time Temperature Precipitation Wind Pressure Humidity
    00:00 +7°C° 0 mm 3 mps 734 mmHg 94%
    01:00 +7°C° 0 mm 3 mps 734 mmHg 95%
    02:00 +7°C° 0 mm 3 mps 734 mmHg 95%
    03:00 +7°C° 0 mm 3 mps 734 mmHg 94%
    04:00 +7°C° 0 mm 3 mps 735 mmHg 93%
    05:00 +8°C° 0 mm 2 mps 735 mmHg 92%
    06:00 +8°C° 0 mm 2 mps 735 mmHg 90%
    07:00 +8°C° 0 mm 3 mps 735 mmHg 89%
    08:00 +8°C° 0 mm 3 mps 735 mmHg 88%
    09:00 +9°C° 0 mm 3 mps 735 mmHg 84%
    10:00 +10°C° 0 mm 3 mps 735 mmHg 81%
    11:00 +10°C° 0 mm 3 mps 735 mmHg 77%
    12:00 +11°C° 0 mm 3 mps 734 mmHg 74%
    13:00 +11°C° 0 mm 3 mps 734 mmHg 70%
    14:00 +12°C° 0 mm 3 mps 733 mmHg 67%
    15:00 +11°C° 0.5 mm 3 mps 733 mmHg 73%
    16:00 +10°C° 0.5 mm 3 mps 732 mmHg 80%
    17:00 +9°C° 0.5 mm 3 mps 732 mmHg 86%
    18:00 +8°C° 1.2 mm 4 mps 731 mmHg 87%
    19:00 +7°C° 1.2 mm 4 mps 730 mmHg 89%
    20:00 +7°C° 1.2 mm 5 mps 729 mmHg 90%
    21:00 +7°C° 0.8 mm 6 mps 727 mmHg 90%
    22:00 +7°C° 0.8 mm 6 mps 726 mmHg 90%
    23:00 +7°C° 0.8 mm 6 mps 724 mmHg 91%

    25 September, Tuesday

    Time Temperature Precipitation Wind Pressure Humidity
    00:00 +7°C° 2 mm 6 mps 723 mmHg 91%
    01:00 +7°C° 2 mm 6 mps 722 mmHg 91%
    02:00 +6°C° 2 mm 7 mps 720 mmHg 92%
    03:00 +8°C° 1 mm 6 mps 720 mmHg 92%
    04:00 +8°C° 1 mm 5 mps 719 mmHg 92%
    05:00 +9°C° 1 mm 5 mps 718 mmHg 93%
    06:00 +10°C° 0.2 mm 4 mps 718 mmHg 92%
    07:00 +10°C° 0.2 mm 4 mps 718 mmHg 91%
    08:00 +10°C° 0.2 mm 4 mps 718 mmHg 90%
    09:00 +10°C° 0.4 mm 4 mps 718 mmHg 90%
    10:00 +10°C° 0.4 mm 4 mps 718 mmHg 90%
    11:00 +10°C° 0.4 mm 4 mps 718 mmHg 90%
    12:00 +10°C° 0.9 mm 3 mps 718 mmHg 91%
    13:00 +9°C° 0.9 mm 3 mps 719 mmHg 92%
    14:00 +9°C° 0.9 mm 3 mps 719 mmHg 93%
    15:00 +9°C° 0.5 mm 3 mps 719 mmHg 94%
    16:00 +9°C° 0.5 mm 2 mps 720 mmHg 94%
    17:00 +9°C° 0.5 mm 2 mps 720 mmHg 95%
    18:00 +8°C° 0.5 mm 3 mps 721 mmHg 94%
    19:00 +8°C° 0.5 mm 3 mps 721 mmHg 94%
    20:00 +7°C° 0.5 mm 4 mps 722 mmHg 94%
    21:00 +7°C° 0.5 mm 4 mps 723 mmHg 94%
    22:00 +6°C° 0.5 mm 5 mps 723 mmHg 93%
    23:00 +6°C° 0.5 mm 5 mps 724 mmHg 93%
    Show more